sat.trackr.live / text

‹ back to catalog

STARLINK-32762

NORAD 62748 · 2025-014P

PAYLOAD ACTIVE UNKNOWN

§ Identity

Operator
Country
US
Launch date
2025-01-21
Launch site
AFETR
Launch vehicle
Mass (kg)
RCS (m²)

Purposes: comms

External: N2YO · Heavens-Above · Gunter

§ Orbital elements

Epoch: 2026-09-21T00:35:41.589888Z

Period
94.27 min
Inclination
43.0031°
Eccentricity
0.0001402
Mean motion
15.27590096 rev/d
Perigee alt
482.1 km
Apogee alt
484.0 km
Semi-major
6,861.2 km
B*
5.7110e-4
RAAN
134.5012°
Arg perigee
263.0176°
Mean anomaly
97.0516°
Rev number
9,309

§ Raw data

STARLINK-327621 62748U 25014P   26264.02478692  .00015491  00000+0  57110-3 0  99932 62748  43.0031 134.5012 0001402 263.0176  97.0516 15.27590096 93091

JSON: /api/v1/satellites/62748 · /tle

For live sub-satellite position, see the globe view (requires WebGL).

§ Visibility from observer

Set your observer location to see the next 7 days of passes ≥ 10°. The values pass through the URL so the page stays shareable.

No JS? Fill the form by hand. The geolocation button needs JavaScript.